Regional Weather Roundup
Issued by NWS Cleveland, OH

Home | Current Version | Previous Version | Graphics & Text | Print | Product List | Glossary On
Versions: 1 2 3 4 5 6 7 8 9 10 11 12 13 14 15 16 17 18 19 20 21 22 23 24 25 26 27 28 29 30 31 32 33 34 35 36 37 38 39 40 41 42 43 44 45 46 47 48 49 50
000
ASUS41 KCLE 292310
RWRCLE
OHIO REGIONAL WEATHER ROUNDUP
NATIONAL WEATHER SERVICE CLEVELAND, OH
700 PM EDT SAT AUG 29 2015

NOTE: "FAIR" INDICATES FEW OR NO CLOUDS BELOW 12,000 FEET WITH NO
SIGNIFICANT WEATHER AND/OR OBSTRUCTIONS TO VISIBILITY.

OHZ001>008-015>018-024>027-034-035-043-044-300000-
   NORTHWEST OHIO

CITY           SKY/WX    TMP DP  RH WIND       PRES   REMARKS
DEFIANCE       CLOUDY    76  69  79 CALM      30.04F
FINDLAY        LGT RAIN  77  69  76 SW3       30.04S
TOLEDO EXPRESS LGT RAIN  74  70  87 N6        30.04F
TOLEDO EXEC    LGT RAIN  74  67  78 CALM      30.05S
LIMA           CLOUDY    76  67  73 NW6       30.05F
$$

OHZ009>014-019>023-028>033-038-089-300000-
   NORTHEAST OHIO

CITY           SKY/WX    TMP DP  RH WIND       PRES   REMARKS
CLE-HOPKINS    CLOUDY    77  61  57 N12       30.07S
CLE-LAKEFRONT  LGT RAIN  74  65  73 NE14      30.04S
CUY CO. ARPT   CLOUDY    77  63  61 NE12      30.07S
LORAIN-ELYRIA  PTSUNNY   78  64  61 N6        30.06S
ASHTABULA      PTSUNNY   74  62  66 NE6       30.09R
AKRON-CANTON   PTSUNNY   79  62  56 S9        30.08S
WOOSTER        PTSUNNY   77  63  61 SW5       30.08S
MANSFIELD      PTSUNNY   81  62  52 SW6       30.08F
YOUNGSTOWN     PTSUNNY   77  64  64 SE3       30.08F
$$

OHZ042-051>053-060>062-070>072-077>081-300000-
  SOUTHWEST OHIO

CITY           SKY/WX    TMP DP  RH WIND       PRES   REMARKS
CINC-COVINGTON PTSUNNY   77  69  76 S5        30.06S
CINC-LUNKEN    PTSUNNY   75  73  93 CALM      30.05F
HAMILTON       PTSUNNY   81  70  69 CALM      30.05S
DAYTON         PTSUNNY   78  64  61 SE9       30.06F
WRIGHT-PAT AFB PTSUNNY   77  65  66 S3        30.05F
DAYTON GENERAL PTSUNNY   77  65  66 E5        30.06F
WILMINGTON     CLOUDY    74  66  76 N5        30.07F
$$

OHZ036-037-039>041-045>050-054>059-063>069-073>076-082>088-300000-
  CENTRAL AND SOUTHEAST OHIO

CITY           SKY/WX    TMP DP  RH WIND       PRES   REMARKS
COLUMBUS       CLOUDY    81  61  50 SW12      30.06R
OSU AIRPORT    PTSUNNY   81  66  60 W5        30.06S
BOLTON FIELD   CLOUDY    72  68  88 NW7       30.07R
RICKENBACK AFB PTSUNNY   81  65  59 S6        30.05S
NEWARK         MOSUNNY   82  62  50 SW8       30.06S
MARION         CLOUDY    80  64  58 W3        30.06F
LANCASTER      PTSUNNY   81  65  58 S6        30.07S
ZANESVILLE     MOSUNNY   84  59  42 SW6       30.07R
NEW PHILLY     MOSUNNY   79  65  62 NE3       30.07F
$$



USA.gov is the U.S. government's official web portal to all federal, state and local government web resources and services.